FW8334 Weather Reports


Display with metric or nautical units.
time (UTC)temp
F
wind
direction
speed
MPH
gust
MPH
rain 1hr
in
rain 24hr
in
rain mn
in
humidity
%
barometer
mb
20260905160052 69 0 0.0 0.0 0.00 0.00 0.00 74 1012.9
20260905154557 69 0 0.0 0.0 0.00 0.00 0.00 76 1012.9
20260905153048 68 0 0.0 0.0 0.00 0.00 0.00 77 1012.6
20260905151546 65 0 0.0 0.0 0.00 0.00 0.00 88 1012.5
20260905150044 63 0 0.0 0.0 0.00 0.00 0.00 92 1012.5
20260905144553 60 0 0.0 0.0 0.00 0.00 0.00 94 1012.4
20260905143047 59 0 0.0 0.0 0.00 0.00 0.00 95 1012.0
20260905141553 59 0 0.0 0.0 0.00 0.00 0.00 95 1012.0
20260905140053 58 0 0.0 0.0 0.00 0.00 0.00 95 1012.1
20260905134551 57 0 0.0 9.0 0.00 0.00 0.00 95 1011.8
20260905133054 57 0 0.0 0.0 0.00 0.00 0.00 95 1011.7
20260905131553 57 0 0.0 0.0 0.00 0.00 0.00 95 1011.5
20260905130048 58 0 0.0 0.0 0.00 0.00 0.00 95 1011.5
20260905124549 58 0 0.0 0.0 0.00 0.00 0.00 95 1011.5
20260905123043 58 0 0.0 0.0 0.00 0.00 0.00 94 1011.5
20260905121548 58 0 0.0 0.0 0.00 0.00 0.00 94 1011.7
20260905120048 58 0 0.0 0.0 0.00 0.00 0.00 95 1011.5
20260905114555 58 0 0.0 0.0 0.00 0.00 0.00 94 1011.5
20260905113051 58 0 0.0 0.0 0.00 0.00 0.00 94 1011.6
20260905111547 58 0 0.0 0.0 0.00 0.00 0.00 94 1011.6
20260905110046 58 0 0.0 0.0 0.00 0.00 0.00 94 1011.7
20260905104548 58 0 0.0 0.0 0.00 0.00 0.00 94 1011.7
20260905103051 59 0 0.0 0.0 0.00 0.00 0.00 94 1011.8
20260905101547 58 0 0.0 2.0 0.00 0.00 0.00 94 1011.8
20260905100048 59 90 1.0 2.0 0.00 0.00 0.00 93 1012.0
20260905094600 59 0 0.0 1.0 0.00 0.00 0.00 94 1012.0
20260905093048 59 0 0.0 2.0 0.00 0.00 0.00 93 1011.9
20260905091548 60 0 0.0 0.0 0.00 0.00 0.00 93 1011.9
20260905090051 60 0 0.0 0.0 0.00 0.00 0.00 93 1012.0
20260905084547 60 0 0.0 0.0 0.00 0.00 0.00 93 1012.1
20260905083046 60 0 0.0 1.0 0.00 0.00 0.00 93 1012.3
20260905081558 61 0 0.0 2.0 0.00 0.00 0.00 93 1012.4
20260905080059 61 89 1.0 3.0 0.00 0.00 0.00 92 1012.5
20260905074548 61 90 1.0 2.0 0.00 0.00 0.00 92 1012.8
20260905073048 61 90 1.0 2.0 0.00 0.00 0.00 92 1012.8
20260905071554 61 90 1.0 3.0 0.00 0.00 0.00 92 1012.7
20260905070048 61 99 1.0 2.0 0.00 0.00 0.00 91 1012.8
20260905064554 61 300 1.0 3.0 0.00 0.00 0.00 91 1012.7
20260905063048 62 300 1.0 2.0 0.00 0.00 0.00 91 1012.8
20260905061605 61 300 0.0 2.0 0.00 0.00 0.00 91 1012.7
20260905060048 61 300 1.0 2.0 0.00 0.00 0.00 90 1012.6
20260905054542 62 300 0.0 2.0 0.00 0.00 0.00 90 1012.7
20260905053053 62 300 1.0 2.0 0.00 0.00 0.00 89 1012.5
20260905051547 62 300 1.0 2.0 0.00 0.00 0.00 89 1012.5
20260905050048 62 0 0.0 1.0 0.00 0.00 0.00 89 1012.7
20260905044555 63 0 0.0 2.0 0.00 0.00 0.00 89 1012.4
20260905043111 63 0 0.0 0.0 0.00 0.00 0.00 88 1012.2
20260905041549 63 0 0.0 2.0 0.00 0.00 0.00 88 1012.1
20260905040115 64 300 0.0 2.0 0.00 0.00 0.00 87 1012.1
20260905034548 64 0 0.0 1.0 0.00 0.00 0.00 86 1012.0
20260905033047 65 0 0.0 0.0 0.00 0.00 0.00 86 1011.8
20260905031545 66 0 0.0 0.0 0.00 0.00 0.00 85 1011.6
20260905030049 67 0 0.0 0.0 0.00 0.00 0.00 84 1011.4
20260905024547 67 0 0.0 0.0 0.00 0.00 0.00 82 1011.2
20260905023050 68 0 0.0 1.0 0.00 0.00 0.00 81 1011.2
20260905021548 69 0 0.0 3.0 0.00 0.00 0.00 78 1011.5
20260905020051 70 0 0.0 3.0 0.00 0.00 0.00 76 1011.2
20260905014546 71 0 0.0 3.0 0.00 0.00 0.00 74 1011.2
20260905013057 72 254 1.0 3.0 0.00 0.00 0.00 72 1011.0
20260905011549 73 271 1.0 7.0 0.00 0.00 0.00 71 1011.2
20260905010052 73 229 2.0 8.0 0.00 0.00 0.00 70 1011.2
20260905004547 75 325 1.0 7.0 0.00 0.00 0.00 69 1011.2
20260905003043 75 0 0.0 4.0 0.00 0.00 0.00 66 1011.4
20260905001548 77 238 0.0 7.0 0.00 0.00 0.00 64 1011.2
20260905000051 77 273 1.0 5.0 0.00 0.00 0.00 63 1011.2
20260904234554 77 243 1.0 5.0 0.00 0.00 0.00 64 1011.3
20260904233045 0 2.0 0.0 0.00 0.00 0.00 1011.4
20260904231551 76 226 3.0 8.0 0.00 0.00 0.00 63 1011.3
20260904230053 78 277 1.0 6.0 0.00 0.00 0.00 61 1011.4
20260904224554 78 209 4.0 11.0 0.00 0.00 0.00 62 1011.7
20260904223046 78 310 2.0 8.0 0.00 0.00 0.00 59 1011.6
20260904221545 0 0.0 0.0 0.00 0.00 0.00 1011.8
20260904220110 0 0.0 0.0 0.00 0.00 0.00 1011.9
20260904214549 0 0.0 0.0 0.00 0.00 0.00 1011.8
20260904213044 79 240 4.0 7.0 0.00 0.00 0.00 60 1011.9
20260904211605 0 0.0 0.0 0.00 0.00 0.00 1011.8
20260904210049 0 0.0 0.0 0.00 0.00 0.00 1012.0
20260904204548 0 0.0 0.0 0.00 0.00 0.00 1012.0
20260904203053 79 2.0 4.0 0.00 0.00 0.00 63 1012.1
20260904201550 78 308 2.0 6.0 0.00 0.00 0.00 64 1012.0
20260904200047 78 281 3.0 9.0 0.00 0.00 0.00 64 1012.2
20260904194547 0 0.0 0.0 0.00 0.00 0.00 1012.2
20260904193053 0 0.0 0.0 0.00 0.00 0.00 1012.2
20260904191549 0 0.0 0.0 0.00 0.00 0.00 1012.3
20260904190048 0 0.0 0.0 0.00 0.00 0.00 1012.5
20260904184552 77 2.0 7.0 0.00 0.00 0.00 64 1012.8
20260904183059 76 260 2.0 8.0 0.00 0.00 0.00 64 1012.8
20260904181547 77 297 0.0 5.0 0.00 0.00 0.00 66 1012.9
20260904180109 76 269 2.0 7.0 0.00 0.00 0.00 68 1012.9
20260904174550 75 207 1.0 4.0 0.00 0.00 0.00 69 1013.1
20260904173053 74 327 2.0 4.0 0.00 0.00 0.00 69 1013.1
20260904171553 72 157 1.0 4.0 0.00 0.00 0.00 71 1013.3
20260904170049 72 0 0.0 5.0 0.00 0.00 0.00 71 1013.2
20260904164542 71 266 3.0 6.0 0.00 0.00 0.00 71 1013.0
20260904163052 70 0 0.0 3.0 0.00 0.00 0.00 77 1012.9
20260904161553 69 274 1.0 4.0 0.00 0.00 0.00 78 1013.0